Location: Bas-Clignon
(44.2000°N, 6.6333°E)
Time: 02:15:36
(UTC+00:00)

Cosmos 540 Rocket - Pass Details

Date: 03 February 2023
Orbit: 740 x 751 km, 74.1° (Epoch: 27 March)

Event Time Altitude Azimuth Distance (km) Brightness Sun altitude
Rises 18:32:30 0° 336° (NNW) 3,204 7.0 -19.4°
Reaches altitude 10° 18:34:53 10° 334° (NNW) 2,274 6.2 -19.8°
Maximum altitude 18:39:58 64° 253° (WSW) 824 3.8 -20.7°
Drops below altitude 10° 18:45:01 10° 173° (S) 2,250 5.9 -21.6°
Sets 18:47:22 0° 170° (S) 3,168 6.6 -22.0°
